Content
SEND FEEDBACK

Daily
Averages
Monthly
Summary
French Polynesia

PAPEETE, FRENCH POLYNESIA


Home > Oceania > French Polynesia
Elevation: 7 feet     Latitude: 17 33S     Longitude: 149 36W

WEATHER
 
SELECT A DAY
Number of Records: 213,109;   Date Range: 6/30/96 - 9/30/14
 
SHARE

PRINT THIS DATA

[ ← Previous Day ]
WEATHER ALMANAC - MAY 10, 2013
[ Next Day → ]
[ °C ]   °F
Weather ElementAverageHighLow
Temperature81.8 °F86 °F (9:30 am)77 °F (4:30 am)
Dewpoint72.8 °F75.2 °F (11:00 am)71 °F (5:00 am)
Humidity73.4 %89 % (7:00 am)62 % (8:00 am)
Barometer29.93 in29.98 in (8:30 am)29.89 in (3:00 am)
Wind Speed8.6 mph31.3 mph (11:00 am)
Wind Gust32.2 mph (1:30 pm)
Weather ElementAverage
Visibility8.2 mi
Wind DirectionENE (57.4 °)

Weather ElementTotal
Precipitation---
Cooling Degree Days16.5 (Base 65)
Growing Degree Days31.5 (Base 50)
Averaged from 54 records on May 10, 2013
WEATHER CONDITIONS BREAKOUT
WIND DIRECTION BREAKOUT
WEATHER BY HOUR - MAY 10, 2013
[ °C ]   °F
Local TimeTemperatureDewpointHumidityBarometerVisibilityWind DirectionWind SpeedGust SpeedPrecipitationEventsConditions
12:30 AM78.8 °F71.6 °F78 %29.95 in6.2 miEast (80°)4.6 mphMostly Cloudy
1:00 AM78.8 °F71.6 °F78 %29.95 in6.2 miESE (110°)4.6 mphMostly Cloudy
1:30 AM78.8 °F71.6 °F78 %29.92 in6.2 miESE (110°)4.6 mphMostly Cloudy
2:00 AM79.0 °F72.0 °F74 %29.94 in12.0 miCalmOvercast
2:00 AM78.8 °F71.6 °F78 %29.92 in6.2 miCalmMostly Cloudy
2:30 AM78.8 °F71.6 °F78 %29.92 in6.2 miVariable1.2 mphMostly Cloudy
3:00 AM78.8 °F71.6 °F78 %29.89 in6.2 miVariable3.5 mphMostly Cloudy
3:30 AM78.8 °F71.6 °F78 %29.89 in6.2 miCalmOvercast
4:00 AM78.8 °F71.6 °F78 %29.89 in6.2 miVariable3.5 mphPartly Cloudy
4:30 AM77.0 °F71.6 °F83 %29.89 in6.2 miSouth (170°)6.9 mph
5:00 AM78.0 °F71.0 °F74 %29.91 in34.0 miESE (110°)3.5 mphClear
5:00 AM77.0 °F71.6 °F83 %29.89 in6.2 miVariable3.5 mphPartly Cloudy
5:30 AM77.0 °F71.6 °F83 %29.92 in6.2 miVariable2.3 mphPartly Cloudy
6:00 AM77.0 °F71.6 °F83 %29.92 in6.2 miVariable2.3 mphScattered Clouds
6:30 AM77.0 °F71.6 °F83 %29.92 in6.2 miEast (90°)4.6 mphPartly Cloudy
7:00 AM77.0 °F73.4 °F89 %29.92 in6.2 miEast (100°)3.5 mphPartly Cloudy
7:30 AM80.6 °F73.4 °F79 %29.95 in6.2 miVariable2.3 mphPartly Cloudy
8:00 AM82.0 °F71.0 °F62 %29.96 in19.0 miEast (90°)13.4 mphPartly Cloudy
8:00 AM82.4 °F71.6 °F70 %29.95 in6.2 miEast (90°)6.9 mphPartly Cloudy
8:30 AM84.2 °F73.4 °F70 %29.98 in6.2 miVariable3.5 mphPartly Cloudy
9:00 AM84.2 °F71.6 °F66 %29.95 in6.2 miENE (70°)13.8 mphPartly Cloudy
9:30 AM86.0 °F71.6 °F62 %29.98 in6.2 miENE (70°)13.8 mphPartly Cloudy
10:00 AM86.0 °F73.4 °F66 %29.95 in6.2 miENE (60°)17.3 mphPartly Cloudy
10:30 AM86.0 °F73.4 °F66 %29.95 in6.2 miNE (50°)16.1 mphPartly Cloudy
11:00 AM86.0 °F75.0 °F62 %29.96 in19.0 miENE (60°)31.3 mphScattered Clouds
11:00 AM86.0 °F75.2 °F70 %29.95 in6.2 miENE (60°)16.1 mphPartly Cloudy
11:30 AM86.0 °F73.4 °F66 %29.95 in6.2 miENE (60°)18.4 mphPartly Cloudy
12:00 PM86.0 °F75.2 °F70 %29.92 in6.2 miNE (50°)17.3 mphPartly Cloudy
12:30 PM86.0 °F73.4 °F66 %29.92 in6.2 miENE (60°)16.1 mphPartly Cloudy
1:00 PM86.0 °F73.4 °F66 %29.89 in6.2 miNE (50°)18.4 mphPartly Cloudy
1:30 PM86.0 °F75.2 °F70 %29.89 in6.2 miNE (50°)18.4 mph32.2 mphPartly Cloudy
2:00 PM86.0 °F75.0 °F62 %29.91 in19.0 miNE (50°)16.1 mphScattered Clouds
2:00 PM86.0 °F75.2 °F70 %29.89 in6.2 miNE (50°)16.1 mphPartly Cloudy
2:30 PM86.0 °F73.4 °F66 %29.89 in6.2 miNE (50°)15.0 mphPartly Cloudy
3:00 PM86.0 °F73.4 °F66 %29.89 in6.2 miNE (50°)12.7 mphPartly Cloudy
3:30 PM86.0 °F73.4 °F66 %29.89 in6.2 miVariable9.2 mph24.2 mphPartly Cloudy
4:00 PM86.0 °F73.4 °F66 %29.89 in6.2 miNE (50°)12.7 mphPartly Cloudy
4:30 PM84.2 °F73.4 °F70 %29.92 in6.2 miENE (60°)8.1 mphPartly Cloudy
5:00 PM84.0 °F74.0 °F64 %29.92 in19.0 miENE (70°)6.9 mphMostly Cloudy
5:00 PM84.2 °F73.4 °F70 %29.92 in6.2 miENE (70°)6.9 mphScattered Clouds
5:30 PM82.4 °F73.4 °F74 %29.92 in6.2 miENE (70°)10.4 mphScattered Clouds
6:00 PM82.4 °F73.4 °F74 %29.92 in6.2 miENE (60°)10.4 mphPartly Cloudy
6:30 PM82.4 °F73.4 °F74 %29.95 in6.2 miENE (60°)8.1 mphPartly Cloudy
7:00 PM82.4 °F71.6 °F70 %29.95 in6.2 miENE (70°)5.8 mphPartly Cloudy
7:30 PM80.6 °F73.4 °F79 %29.95 in6.2 miEast (80°)6.9 mphPartly Cloudy
8:00 PM81.0 °F73.0 °F70 %29.98 in25.0 miENE (70°)6.9 mphClear
8:30 PM80.6 °F73.4 °F79 %29.98 in6.2 miEast (80°)5.8 mphPartly Cloudy
9:00 PM80.6 °F73.4 °F79 %29.98 in6.2 miENE (70°)3.5 mphPartly Cloudy
9:30 PM78.8 °F73.4 °F83 %29.98 in6.2 miEast (80°)5.8 mphPartly Cloudy
10:00 PM78.8 °F73.4 °F83 %29.98 in6.2 miENE (70°)5.8 mphPartly Cloudy
10:30 PM78.8 °F73.4 °F83 %29.98 in6.2 miENE (70°)4.6 mphPartly Cloudy
11:00 PM79.0 °F72.0 °F75 %29.97 in12.0 miENE (70°)4.6 mphScattered Clouds
11:00 PM78.8 °F71.6 °F78 %29.95 in6.2 miENE (70°)4.6 mphPartly Cloudy
11:30 PM78.8 °F71.6 °F78 %29.95 in6.2 miEast (80°)4.6 mphPartly Cloudy
Hourly data recorded from NTAA, located miles away from Papeete, French Polynesia







STORIES FROM OUR PARTNERS